This is the latest recevied weather packets stored in our database for station/object SA7AHC. If no packets are shown the sender has not sent any weather packets the latest 10 day(s).
| Time | Temp. | Humidity | Pressure | Rain* | Wind** | Luminosity | Snow |
|---|---|---|---|---|---|---|---|
| 1777646413 | 23.33° C | 26% | 1025.8 hPa | 0 mm | - | 492 W/m² | - |
| 1777645812 | 23.33° C | 24% | 1025.7 hPa | 0 mm | - | 513 W/m² | - |
| 1777645216 | 23.89° C | 25% | 1026 hPa | 0 mm | - | 534 W/m² | - |
| 1777644609 | 23.89° C | 24% | 1026 hPa | 0 mm | - | 555 W/m² | - |
| 1777644011 | 23.33° C | 24% | 1026.1 hPa | 0 mm | - | 575 W/m² | - |
| 1777643406 | 23.89° C | 25% | 1026.2 hPa | 0 mm | - | 594 W/m² | - |
| 1777642806 | 23.33° C | 24% | 1026.2 hPa | 0 mm | - | 612 W/m² | - |
| 1777642206 | 23.33° C | 23% | 1026.1 hPa | 0 mm | - | 629 W/m² | - |
| 1777641600 | 23.33° C | 24% | 1026.3 hPa | 0 mm | - | 645 W/m² | - |
| 1777640999 | 23.89° C | 24% | 1026.3 hPa | 0 mm | - | 657 W/m² | - |
| 1777640394 | 23.33° C | 25% | 1026.5 hPa | 0 mm | - | 671 W/m² | - |
| 1777639793 | 23.33° C | 25% | 1026.7 hPa | 0 mm | - | 686 W/m² | - |
| 1777639188 | 23.33° C | 25% | 1026.7 hPa | 0 mm | - | 698 W/m² | - |
| 1777638589 | 23.33° C | 24% | 1026.7 hPa | 0 mm | - | 708 W/m² | - |
| 1777637985 | 22.78° C | 26% | 1026.8 hPa | 0 mm | - | 717 W/m² | - |
| 1777637379 | 22.78° C | 26% | 1026.8 hPa | 0 mm | - | 731 W/m² | - |
| 1777636779 | 22.78° C | 27% | 1027 hPa | 0 mm | - | 735 W/m² | - |
| 1777636175 | 22.78° C | 26% | 1027.1 hPa | 0 mm | - | 740 W/m² | - |
| 1777635576 | 22.78° C | 28% | 1027.1 hPa | 0 mm | - | 747 W/m² | - |
| 1777634976 | 22.22° C | 26% | 1027.1 hPa | 0 mm | - | 751 W/m² | - |
| 1777634378 | 22.22° C | 29% | 1027.1 hPa | 0 mm | - | 752 W/m² | - |
| 1777633777 | 22.22° C | 27% | 1027.1 hPa | 0 mm | - | 752 W/m² | - |
| 1777633173 | 21.67° C | 29% | 1027 hPa | 0 mm | - | 752 W/m² | - |
| 1777632576 | 21.67° C | 29% | 1027.1 hPa | 0 mm | - | 735 W/m² | - |
| 1777631975 | 21.11° C | 31% | 1027.1 hPa | 0 mm | - | 754 W/m² | - |
* Rain latest hour (hover to see other rain measurements)
** Current wind speed in m/s (hover to see current wind gust speed)